Time,TemperatureF,DewpointF,PressureIn,WindDirection,WindDirectionDegrees,WindSpeedMPH,WindSpeedGustMPH,Humidity,HourlyPrecipIn,Conditions,Clouds,dailyrainin,SoftwareType,DateUTC
2013-08-16 00:11:00,57.0,53.0,30.14,NW,313,0.0,0.0,86,0.00,,,0.00,,2013-08-16 05:11:00,
2013-08-16 00:21:00,56.0,52.0,30.15,NW,313,0.0,0.0,86,0.00,,,0.00,,2013-08-16 05:21:00,
2013-08-16 02:00:00,54.0,50.0,30.14,NW,313,0.0,0.0,87,0.00,,,0.00,,2013-08-16 07:00:00,
2013-08-16 02:11:00,54.0,50.0,30.14,NW,313,0.0,0.0,87,0.00,,,0.00,,2013-08-16 07:11:00,
2013-08-16 02:21:00,54.0,50.0,30.14,NW,313,0.0,0.0,87,0.00,,,0.00,,2013-08-16 07:21:00,
2013-08-16 02:42:00,54.0,50.0,30.14,NW,313,0.0,0.0,87,0.00,,,0.00,,2013-08-16 07:42:00,
2013-08-16 02:52:00,54.0,50.0,30.14,NW,313,0.0,0.0,87,0.00,,,0.00,,2013-08-16 07:52:00,
2013-08-16 03:11:00,53.0,49.0,30.14,NW,313,0.0,0.0,87,0.00,,,0.00,,2013-08-16 08:11:00,
2013-08-16 03:21:00,53.0,49.0,30.14,NW,313,0.0,0.0,87,0.00,,,0.00,,2013-08-16 08:21:00,
2013-08-16 03:52:00,53.0,49.0,30.14,NW,313,0.0,0.0,87,0.00,,,0.00,,2013-08-16 08:52:00,
2013-08-16 04:11:00,52.0,48.0,30.14,NW,313,0.0,0.0,87,0.00,,,0.00,,2013-08-16 09:11:00,
2013-08-16 04:21:00,52.0,48.0,30.14,NW,313,0.0,0.0,87,0.00,,,0.00,,2013-08-16 09:21:00,
2013-08-16 04:53:00,52.0,48.0,30.15,NW,313,0.0,0.0,87,0.00,,,0.00,,2013-08-16 09:53:00,
2013-08-16 05:13:00,52.0,48.0,30.15,NW,313,0.0,0.0,87,0.00,,,0.00,,2013-08-16 10:13:00,
2013-08-16 05:23:00,52.0,48.0,30.15,NW,313,0.0,0.0,87,0.00,,,0.00,,2013-08-16 10:23:00,
2013-08-16 05:53:00,51.0,48.0,30.16,NW,313,0.0,0.0,88,0.00,,,0.00,,2013-08-16 10:53:00,
2013-08-16 06:12:00,51.0,48.0,30.16,NW,313,0.0,0.0,88,0.00,,,0.00,,2013-08-16 11:12:00,
2013-08-16 06:21:00,51.0,48.0,30.15,NW,313,0.0,0.0,88,0.00,,,0.00,,2013-08-16 11:21:00,
2013-08-16 06:42:00,51.0,48.0,30.15,NW,313,0.0,0.0,88,0.00,,,0.00,,2013-08-16 11:42:00,
2013-08-16 06:52:00,51.0,48.0,30.16,NW,313,0.0,0.0,88,0.00,,,0.00,,2013-08-16 11:52:00,
2013-08-16 07:12:00,51.0,48.0,30.17,NW,313,0.0,0.0,88,0.00,,,0.00,,2013-08-16 12:12:00,
2013-08-16 07:21:00,51.0,48.0,30.17,NW,313,0.0,0.0,88,0.00,,,0.00,,2013-08-16 12:21:00,
2013-08-16 07:52:00,52.0,49.0,30.18,NW,313,0.0,0.0,89,0.00,,,0.00,,2013-08-16 12:52:00,
2013-08-16 08:11:00,53.0,50.0,30.18,NW,313,0.0,0.0,89,0.00,,,0.00,,2013-08-16 13:11:00,
2013-08-16 08:21:00,54.0,51.0,30.19,NW,313,0.0,0.0,89,0.00,,,0.00,,2013-08-16 13:21:00,
2013-08-16 08:42:00,56.0,53.0,30.19,NW,313,0.0,0.0,89,0.00,,,0.00,,2013-08-16 13:42:00,
2013-08-16 08:53:00,58.0,55.0,30.19,NW,313,0.0,0.0,89,0.00,,,0.00,,2013-08-16 13:53:00,
2013-08-16 09:11:00,60.0,57.0,30.19,NW,313,0.0,0.0,89,0.00,,,0.00,,2013-08-16 14:11:00,
2013-08-16 09:22:00,62.0,59.0,30.19,NW,313,0.0,0.0,89,0.00,,,0.00,,2013-08-16 14:22:00,
2013-08-16 09:42:00,63.0,60.0,30.19,NW,313,0.0,1.0,90,0.00,,,0.00,,2013-08-16 14:42:00,
2013-08-16 09:52:00,64.0,61.0,30.19,NW,313,0.0,0.0,89,0.00,,,0.00,,2013-08-16 14:52:00,
2013-08-16 10:12:00,66.0,60.0,30.19,NW,313,0.0,1.0,80,0.00,,,0.00,,2013-08-16 15:12:00,
2013-08-16 10:22:00,69.0,61.0,30.19,NW,313,0.0,1.0,75,0.00,,,0.00,,2013-08-16 15:22:00,
2013-08-16 10:43:00,71.0,58.0,30.19,NW,313,0.0,1.0,63,0.00,,,0.00,,2013-08-16 15:43:00,
2013-08-16 10:56:00,74.0,59.0,30.19,WSW,247,0.0,2.0,60,0.00,,,0.00,,2013-08-16 15:56:00,
2013-08-16 11:13:00,76.0,57.0,30.19,NW,316,0.0,2.0,51,0.00,,,0.00,,2013-08-16 16:13:00,
2013-08-16 11:23:00,77.0,56.0,30.19,NW,316,0.0,2.0,48,0.00,,,0.00,,2013-08-16 16:23:00,
2013-08-16 11:57:00,79.0,58.0,30.19,NW,316,0.0,1.0,48,0.00,,,0.00,,2013-08-16 16:57:00,
2013-08-16 12:12:00,80.0,54.0,30.19,NNW,343,2.0,4.0,41,0.00,,,0.00,,2013-08-16 17:12:00,
2013-08-16 12:28:00,80.0,55.0,30.18,NE,48,0.0,2.0,42,0.00,,,0.00,,2013-08-16 17:28:00,
2013-08-16 12:47:00,80.0,55.0,30.18,NW,304,0.0,4.0,42,0.00,,,0.00,,2013-08-16 17:47:00,
2013-08-16 13:00:00,81.0,58.0,30.18,NW,322,0.0,4.0,45,0.00,,,0.00,,2013-08-16 18:00:00,
2013-08-16 13:15:00,81.0,56.0,30.17,SE,130,0.0,4.0,42,0.00,,,0.00,,2013-08-16 18:15:00,
2013-08-16 13:28:00,81.0,53.0,30.17,SE,140,1.0,4.0,38,0.00,,,0.00,,2013-08-16 18:28:00,
2013-08-16 13:50:00,-999.0,-99.9,30.17,ESE,120,0.0,1.0,42,0.00,,,0.00,,2013-08-16 18:50:00,
2013-08-16 14:14:00,83.0,56.0,30.16,SE,127,1.0,3.0,40,0.00,,,0.00,,2013-08-16 19:14:00,
2013-08-16 14:25:00,83.0,55.0,30.17,ESE,121,0.0,1.0,39,0.00,,,0.00,,2013-08-16 19:25:00,
2013-08-16 14:55:00,84.0,53.0,30.15,SSE,165,0.0,2.0,35,0.00,,,0.00,,2013-08-16 19:55:00,
2013-08-16 15:11:00,83.0,56.0,30.15,SSE,165,0.0,0.0,40,0.00,,,0.00,,2013-08-16 20:11:00,
2013-08-16 15:23:00,80.0,58.0,30.15,SSE,165,0.0,0.0,47,0.00,,,0.00,,2013-08-16 20:23:00,
2013-08-16 15:52:00,82.0,53.0,30.14,SSE,164,0.0,1.0,37,0.00,,,0.00,,2013-08-16 20:52:00,
2013-08-16 16:11:00,84.0,54.0,30.14,SSE,164,0.0,1.0,36,0.00,,,0.00,,2013-08-16 21:11:00,
2013-08-16 16:25:00,84.0,53.0,30.14,ESE,113,0.0,4.0,35,0.00,,,0.00,,2013-08-16 21:25:00,
2013-08-16 16:40:00,-999.0,-99.9,30.14,SE,136,0.0,1.0,-999,0.00,,,0.00,,2013-08-16 21:40:00,
2013-08-16 16:54:00,83.0,57.0,30.14,SE,141,0.0,3.0,41,0.00,,,0.00,,2013-08-16 21:54:00,
2013-08-16 17:13:00,82.0,59.0,30.14,SE,141,0.0,0.0,46,0.00,,,0.00,,2013-08-16 22:13:00,
2013-08-16 17:24:00,79.0,55.0,30.15,SE,141,0.0,1.0,44,0.00,,,0.00,,2013-08-16 22:24:00,
2013-08-16 17:52:00,78.0,57.0,30.14,SE,141,0.0,0.0,49,0.00,,,0.00,,2013-08-16 22:52:00,
2013-08-16 18:12:00,80.0,57.0,30.14,SE,141,0.0,0.0,45,0.00,,,0.00,,2013-08-16 23:12:00,
2013-08-16 18:23:00,82.0,55.0,30.14,SE,141,0.0,1.0,40,0.00,,,0.00,,2013-08-16 23:23:00,
2013-08-16 18:52:00,82.0,58.0,30.14,SE,141,0.0,0.0,44,0.00,,,0.00,,2013-08-16 23:52:00,
2013-08-16 19:11:00,80.0,59.0,30.14,SE,141,0.0,0.0,48,0.00,,,0.00,,2013-08-17 00:11:00,
2013-08-16 19:21:00,78.0,58.0,30.14,SE,141,0.0,0.0,50,0.00,,,0.00,,2013-08-17 00:21:00,
2013-08-16 19:42:00,76.0,59.0,30.14,SE,141,0.0,0.0,56,0.00,,,0.00,,2013-08-17 00:42:00,
2013-08-16 19:52:00,74.0,59.0,30.15,SE,141,0.0,0.0,60,0.00,,,0.00,,2013-08-17 00:52:00,
2013-08-16 20:11:00,72.0,59.0,30.14,SE,141,0.0,0.0,63,0.00,,,0.00,,2013-08-17 01:11:00,
2013-08-16 20:21:00,70.0,59.0,30.14,SE,141,0.0,0.0,67,0.00,,,0.00,,2013-08-17 01:21:00,
2013-08-16 20:42:00,69.0,59.0,30.15,SE,141,0.0,0.0,70,0.00,,,0.00,,2013-08-17 01:42:00,
2013-08-16 20:52:00,67.0,58.0,30.15,SE,141,0.0,0.0,73,0.00,,,0.00,,2013-08-17 01:52:00,
2013-08-16 21:11:00,66.0,58.0,30.15,SE,141,0.0,0.0,76,0.00,,,0.00,,2013-08-17 02:11:00,
2013-08-16 21:21:00,65.0,58.0,30.16,SE,141,0.0,0.0,78,0.00,,,0.00,,2013-08-17 02:21:00,
2013-08-16 21:42:00,64.0,58.0,30.16,SE,141,0.0,0.0,80,0.00,,,0.00,,2013-08-17 02:42:00,
2013-08-16 21:52:00,63.0,57.0,30.16,SE,141,0.0,0.0,81,0.00,,,0.00,,2013-08-17 02:52:00,
2013-08-16 22:11:00,62.0,56.0,30.16,SE,141,0.0,0.0,81,0.00,,,0.00,,2013-08-17 03:11:00,
2013-08-16 22:22:00,62.0,56.0,30.16,SE,141,0.0,0.0,82,0.00,,,0.00,,2013-08-17 03:22:00,
2013-08-16 22:53:00,61.0,56.0,30.17,SE,141,0.0,0.0,83,0.00,,,0.00,,2013-08-17 03:53:00,
2013-08-16 23:12:00,60.0,55.0,30.16,SE,141,0.0,0.0,83,0.00,,,0.00,,2013-08-17 04:12:00,
2013-08-16 23:23:00,60.0,55.0,30.17,SE,141,0.0,0.0,84,0.00,,,0.00,,2013-08-17 04:23:00,
2013-08-16 23:53:00,59.0,54.0,30.17,SE,141,0.0,0.0,85,0.00,,,0.00,,2013-08-17 04:53:00,